MST,Max TemperatureF,Mean TemperatureF,Min TemperatureF,Max Dew PointF,MeanDew PointF,Min DewpointF,Max Humidity, Mean Humidity, Min Humidity, Max Sea Level PressureIn, Mean Sea Level PressureIn, Min Sea Level PressureIn, Max VisibilityMiles, Mean VisibilityMiles, Min VisibilityMiles, Max Wind SpeedMPH, Mean Wind SpeedMPH, Max Gust SpeedMPH,PrecipitationIn, CloudCover, Events, WindDirDegrees
2013-11-1,53,41,29,33,25,19,89,59,28,30.26,30.09,29.83,10,10,10,30,15,38,0.00,4,,320
2013-11-2,64,46,28,28,22,19,69,44,18,30.25,30.05,29.68,10,10,10,23,11,32,0.00,0,,183
2013-11-3,64,49,34,32,26,20,76,47,18,29.80,29.62,29.48,10,10,10,37,11,46,0.00,1,,323
2013-11-4,44,36,27,29,23,17,100,70,39,30.08,29.97,29.83,10,9,2,37,23,43,T,3,Snow,25
2013-11-5,38,30,21,32,28,17,100,76,52,30.25,30.02,29.90,10,6,0,30,15,37,0.14,6,Fog-Rain-Snow,31
2013-11-6,50,36,22,22,17,11,81,55,28,30.39,30.28,30.20,10,10,10,20,11,27,0.00,1,,269
2013-11-7,59,43,26,25,21,17,75,48,21,30.46,30.28,29.97,10,10,10,21,11,30,0.00,0,,197
2013-11-8,66,52,37,32,24,19,76,46,16,29.99,29.86,29.75,10,10,10,22,13,26,0.00,0,,279
2013-11-9,65,48,30,31,28,24,85,54,22,30.27,30.14,29.99,10,10,10,18,8,24,0.00,0,,138
2013-11-10,65,48,31,39,32,27,89,57,24,30.29,30.19,30.11,10,10,10,17,9,25,0.00,0,,208
2013-11-11,45,35,25,29,26,23,100,77,53,30.76,30.42,30.10,10,7,0,17,12,23,0.00,6,Fog,24
2013-11-12,57,40,23,31,26,21,92,61,30,30.77,30.60,30.33,10,9,5,20,9,25,T,2,Snow,214
2013-11-13,46,39,31,27,25,23,78,58,38,30.31,30.14,29.98,10,10,10,20,17,,0.00,0,,254
2013-11-14,54,47,39,32,31,30,70,58,45,30.09,29.96,29.81,10,10,10,17,8,,0.00,0,,173
2013-11-15,62,47,31,32,23,11,89,52,14,29.78,29.56,29.38,10,10,10,22,12,26,0.00,0,,211
2013-11-16,58,44,29,29,25,19,78,51,24,29.49,29.37,29.28,10,10,10,24,10,29,T,3,,238
2013-11-17,50,40,29,24,13,6,72,45,18,30.12,29.86,29.49,10,9,2,52,22,62,T,2,,301
2013-11-18,61,45,29,19,14,10,47,31,15,30.19,30.09,29.98,10,10,10,17,12,22,0.00,0,,216
2013-11-19,59,45,30,28,19,12,49,35,21,29.95,29.78,29.68,10,10,10,20,10,22,T,2,,269
2013-11-20,58,42,26,31,26,23,64,45,25,30.02,29.81,29.72,10,9,2,37,10,44,T,3,Rain-Snow,296
2013-11-21,26,17,7,23,10,5,96,86,76,30.80,30.35,30.04,10,3,0,30,20,35,0.02,8,Fog-Snow,354
2013-11-22,29,20,11,17,12,9,92,71,50,30.76,30.70,30.63,10,10,10,14,8,16,0.00,1,,283
2013-11-23,33,27,20,17,13,9,74,57,39,30.78,30.66,30.48,10,10,10,17,8,21,0.00,4,,167
2013-11-24,34,28,21,24,20,13,88,73,57,30.43,30.18,30.04,10,10,10,26,17,36,0.00,3,,193
2013-11-25,40,31,21,24,21,17,92,70,48,30.37,30.27,30.05,10,10,10,17,11,22,0.00,5,,326
2013-11-26,42,32,22,24,21,20,88,67,45,30.47,30.40,30.29,10,10,10,17,11,20,0.00,0,,288
2013-11-27,60,44,27,23,21,18,75,47,19,30.26,30.13,29.99,10,10,10,16,11,20,0.00,0,,269
2013-11-28,46,35,23,23,21,19,81,59,37,30.32,30.24,30.11,10,10,10,22,9,24,0.00,0,,139
2013-11-29,57,41,24,27,23,20,88,58,28,30.18,30.14,30.07,10,10,10,17,10,21,0.00,0,,262
2013-11-30,57,42,27,23,20,18,75,50,24,30.18,30.14,30.09,10,10,10,14,8,16,0.00,0,,240